• In Czech Republic
  • List of Countries
  • For 7 days
  • Water Temperature
  • Satellite Maps
  • Weather Map
  • Weather Widgets
  • user-avatar
    Login

    Hourly Weather Polanki

    Today, 22 September, Saturday

    Time Temperature Precipitation Wind Pressure Humidity
    00:00 +18°C° 0 mm 4 mps 738 mmHg 61%
    01:00 +18°C° 0 mm 3 mps 738 mmHg 61%
    02:00 +18°C° 0 mm 3 mps 738 mmHg 61%
    03:00 +18°C° 0 mm 3 mps 738 mmHg 60%
    04:00 +18°C° 0 mm 4 mps 739 mmHg 60%
    05:00 +17°C° 0.4 mm 4 mps 740 mmHg 69%
    06:00 +15°C° 0.4 mm 5 mps 740 mmHg 78%
    07:00 +13°C° 0 mm 5 mps 741 mmHg 85%
    08:00 +12°C° 1 mm 4 mps 742 mmHg 86%
    09:00 +12°C° 1 mm 3 mps 742 mmHg 87%
    10:00 +11°C° 1 mm 3 mps 743 mmHg 88%
    11:00 +12°C° 1 mm 2 mps 743 mmHg 86%
    12:00 +13°C° 1 mm 2 mps 743 mmHg 84%
    13:00 +13°C° 1 mm 2 mps 743 mmHg 82%
    14:00 +14°C° 0.1 mm 2 mps 743 mmHg 77%
    15:00 +14°C° 0.1 mm 2 mps 743 mmHg 72%
    16:00 +15°C° 0.1 mm 2 mps 743 mmHg 66%
    17:00 +14°C° 0 mm 2 mps 743 mmHg 70%
    18:00 +13°C° 0 mm 2 mps 743 mmHg 73%
    19:00 +12°C° 0 mm 2 mps 743 mmHg 76%
    20:00 +12°C° 0 mm 2 mps 743 mmHg 75%
    21:00 +12°C° 0 mm 2 mps 743 mmHg 75%
    22:00 +12°C° 0 mm 2 mps 743 mmHg 74%
    23:00 +12°C° 0 mm 2 mps 743 mmHg 74%

    Tomorrow, 23 September, Sunday

    Time Temperature Precipitation Wind Pressure Humidity
    00:00 +12°C° 0 mm 2 mps 743 mmHg 73%
    01:00 +12°C° 0 mm 2 mps 743 mmHg 73%
    02:00 +12°C° 0 mm 2 mps 743 mmHg 74%
    03:00 +10°C° 0 mm 3 mps 742 mmHg 75%
    04:00 +10°C° 0 mm 3 mps 742 mmHg 76%
    05:00 +10°C° 0 mm 3 mps 742 mmHg 76%
    06:00 +11°C° 0 mm 3 mps 742 mmHg 75%
    07:00 +11°C° 0 mm 3 mps 742 mmHg 74%
    08:00 +13°C° 0 mm 4 mps 742 mmHg 67%
    09:00 +15°C° 0 mm 4 mps 742 mmHg 59%
    10:00 +17°C° 0 mm 4 mps 742 mmHg 52%
    11:00 +18°C° 0 mm 4 mps 742 mmHg 51%
    12:00 +18°C° 0 mm 4 mps 741 mmHg 51%
    13:00 +19°C° 0 mm 4 mps 741 mmHg 50%
    14:00 +18°C° 0 mm 3 mps 740 mmHg 55%
    15:00 +17°C° 0 mm 3 mps 739 mmHg 60%
    16:00 +17°C° 0 mm 2 mps 739 mmHg 64%
    17:00 +16°C° 0.2 mm 3 mps 738 mmHg 68%
    18:00 +14°C° 0.2 mm 3 mps 737 mmHg 71%
    19:00 +14°C° 0.2 mm 4 mps 737 mmHg 74%
    20:00 +14°C° 0.1 mm 5 mps 736 mmHg 70%
    21:00 +15°C° 0.1 mm 7 mps 734 mmHg 66%
    22:00 +15°C° 0.1 mm 9 mps 733 mmHg 62%
    23:00 +16°C° 0.7 mm 8 mps 732 mmHg 68%

    Day after tomorrow, 24 September, Monday

    Time Temperature Precipitation Wind Pressure Humidity
    00:00 +16°C° 0.7 mm 8 mps 732 mmHg 73%
    01:00 +16°C° 0.7 mm 8 mps 731 mmHg 79%
    02:00 +15°C° 1.8 mm 8 mps 731 mmHg 82%
    03:00 +15°C° 1.8 mm 8 mps 731 mmHg 86%
    04:00 +15°C° 1.8 mm 7 mps 731 mmHg 89%
    05:00 +12°C° 0.8 mm 8 mps 732 mmHg 88%
    06:00 +10°C° 0.8 mm 8 mps 733 mmHg 87%
    07:00 +9°C° 0.8 mm 8 mps 735 mmHg 86%
    08:00 +9°C° 0.3 mm 8 mps 736 mmHg 84%
    09:00 +9°C° 0.3 mm 8 mps 738 mmHg 82%
    10:00 +9°C° 0.3 mm 8 mps 739 mmHg 80%
    11:00 +10°C° 0.3 mm 8 mps 740 mmHg 74%
    12:00 +10°C° 0.3 mm 8 mps 740 mmHg 69%
    13:00 +11°C° 0.3 mm 9 mps 741 mmHg 64%
    14:00 +11°C° 0.1 mm 8 mps 741 mmHg 62%
    15:00 +11°C° 0.1 mm 8 mps 742 mmHg 59%
    16:00 +10°C° 0.1 mm 8 mps 742 mmHg 56%
    17:00 +9°C° 0 mm 7 mps 743 mmHg 58%
    18:00 +8°C° 0 mm 6 mps 743 mmHg 60%
    19:00 +7°C° 0 mm 6 mps 744 mmHg 62%
    20:00 +7°C° 0.1 mm 6 mps 744 mmHg 64%
    21:00 +7°C° 0.1 mm 6 mps 744 mmHg 66%
    22:00 +5°C° 0.1 mm 6 mps 745 mmHg 69%
    23:00 +5°C° 0.2 mm 6 mps 745 mmHg 71%

    25 September, Tuesday

    Time Temperature Precipitation Wind Pressure Humidity
    00:00 +6°C° 0.2 mm 5 mps 746 mmHg 74%
    01:00 +5°C° 0.2 mm 5 mps 746 mmHg 77%
    02:00 +5°C° 0.1 mm 5 mps 747 mmHg 79%
    03:00 +5°C° 0.1 mm 5 mps 747 mmHg 80%
    04:00 +5°C° 0.1 mm 5 mps 748 mmHg 82%
    05:00 +5°C° 0 mm 5 mps 748 mmHg 81%
    06:00 +5°C° 0 mm 5 mps 749 mmHg 80%
    07:00 +5°C° 0 mm 5 mps 750 mmHg 78%
    08:00 +5°C° 0.1 mm 6 mps 750 mmHg 71%
    09:00 +8°C° 0.1 mm 6 mps 750 mmHg 63%
    10:00 +9°C° 0.1 mm 7 mps 751 mmHg 55%
    11:00 +9°C° 0.1 mm 7 mps 751 mmHg 53%
    12:00 +10°C° 0.1 mm 7 mps 751 mmHg 51%
    13:00 +10°C° 0.1 mm 7 mps 751 mmHg 48%
    14:00 +10°C° 0.2 mm 6 mps 751 mmHg 52%
    15:00 +9°C° 0.2 mm 6 mps 752 mmHg 56%
    16:00 +9°C° 0.2 mm 5 mps 752 mmHg 60%
    17:00 +8°C° 0 mm 5 mps 753 mmHg 64%
    18:00 +7°C° 0 mm 4 mps 753 mmHg 69%
    19:00 +5°C° 0 mm 3 mps 754 mmHg 74%
    20:00 +6°C° 0 mm 2 mps 754 mmHg 75%
    21:00 +5°C° 0 mm 2 mps 755 mmHg 76%
    22:00 +5°C° 0 mm 2 mps 755 mmHg 78%
    23:00 +4°C° 0 mm 2 mps 755 mmHg 79%

    26 September, Wednesday

    Time Temperature Precipitation Wind Pressure Humidity
    00:00 +4°C° 0 mm 2 mps 756 mmHg 79%
    01:00 +3°C° 0 mm 2 mps 756 mmHg 80%
    02:00 +3°C° 0 mm 2 mps 756 mmHg 81%
    03:00 +3°C° 0 mm 2 mps 756 mmHg 81%
    04:00 +3°C° 0 mm 2 mps 756 mmHg 81%
    05:00 +4°C° 0 mm 2 mps 756 mmHg 78%
    06:00 +4°C° 0 mm 2 mps 756 mmHg 74%
    07:00 +5°C° 0 mm 2 mps 756 mmHg 71%
    08:00 +7°C° 0 mm 2 mps 756 mmHg 62%
    09:00 +10°C° 0 mm 2 mps 756 mmHg 54%
    10:00 +12°C° 0 mm 3 mps 755 mmHg 45%
    11:00 +13°C° 0 mm 3 mps 755 mmHg 42%
    12:00 +14°C° 0 mm 3 mps 754 mmHg 39%
    13:00 +16°C° 0 mm 3 mps 754 mmHg 37%
    14:00 +14°C° 0 mm 3 mps 753 mmHg 41%
    15:00 +14°C° 0 mm 3 mps 752 mmHg 44%
    16:00 +15°C° 0 mm 2 mps 752 mmHg 48%
    17:00 +13°C° 0 mm 2 mps 752 mmHg 50%
    18:00 +11°C° 0 mm 3 mps 752 mmHg 51%
    19:00 +10°C° 0 mm 3 mps 752 mmHg 53%
    20:00 +10°C° 0 mm 3 mps 751 mmHg 54%
    21:00 +9°C° 0 mm 3 mps 751 mmHg 56%
    22:00 +9°C° 0 mm 3 mps 751 mmHg 58%
    23:00 +8°C° 0 mm 3 mps 751 mmHg 59%

    27 September, Thursday

    Time Temperature Precipitation Wind Pressure Humidity
    00:00 +8°C° 0 mm 3 mps 750 mmHg 60%
    01:00 +7°C° 0 mm 3 mps 750 mmHg 62%
    02:00 +7°C° 0 mm 3 mps 750 mmHg 62%
    03:00 +5°C° 0 mm 3 mps 749 mmHg 62%
    04:00 +5°C° 0 mm 3 mps 749 mmHg 62%
    05:00 +6°C° 0 mm 4 mps 749 mmHg 60%
    06:00 +6°C° 0 mm 4 mps 748 mmHg 59%
    07:00 +7°C° 0 mm 4 mps 748 mmHg 57%
    08:00 +10°C° 0 mm 4 mps 748 mmHg 53%
    09:00 +12°C° 0 mm 5 mps 748 mmHg 48%
    10:00 +14°C° 0 mm 5 mps 747 mmHg 44%
    11:00 +15°C° 0 mm 5 mps 747 mmHg 42%
    12:00 +17°C° 0 mm 5 mps 746 mmHg 40%
    13:00 +19°C° 0 mm 5 mps 746 mmHg 38%
    14:00 +17°C° 0 mm 5 mps 746 mmHg 41%
    15:00 +18°C° 0 mm 4 mps 745 mmHg 44%
    16:00 +18°C° 0 mm 4 mps 745 mmHg 47%
    17:00 +17°C° 0 mm 4 mps 745 mmHg 48%
    18:00 +14°C° 0 mm 3 mps 745 mmHg 49%
    19:00 +13°C° 0 mm 3 mps 745 mmHg 50%
    20:00 +13°C° 0 mm 3 mps 745 mmHg 51%
    21:00 +13°C° 0 mm 3 mps 744 mmHg 52%
    22:00 +12°C° 0 mm 3 mps 744 mmHg 53%
    23:00 +12°C° 0 mm 3 mps 744 mmHg 54%
    Show more